Change the Weather History Date:

Monday, February 25, 2013

  Actual Average Record
Temperature  
Mean Temperature 35 °F -  
Max Temperature 26 °F 43 °F 51 °F (1998)
Min Temperature 26 °F 30 °F 19 °F (2014)
Degree Days  
Heating Degree Days 30    
Moisture  
Dew Point 24 °F    
Average Humidity 65    
Maximum Humidity 92    
Minimum Humidity 45    
Precipitation  
Precipitation 0.00 in - - ()
Sea Level Pressure  
Sea Level Pressure 30.13 in    
Wind  
Wind Speed 4 mph (NW)    
Max Wind Speed 8 mph    
Max Gust Speed 17 mph    
Averages and records for this station are not official NWS values.
T = Trace of Precipitation, MM = Missing Value Source: NWS Daily Summary

Daily Weather History Graph

Daily Weather History Graph

Search for Another Location

Airport or City:

Trip Planner

Search our weather history database for the weather conditions in past years. The results will help you decide how hot, cold, wet, or windy it might be!

Date:

Astronomy

Feb. 25, 2013 Rise Set
Actual Time 6:36 AM EST 5:45 PM EST
Civil Twilight 6:09 AM EST 6:12 PM EST
Nautical Twilight 5:37 AM EST 6:43 PM EST
Astronomical Twilight 5:06 AM EST 7:15 PM EST
Moon 5:55 PM EST (2/25) 6:05 AM EST (2/25)
Length of Visible Light 12h 03m
Length of Day
11h 08m
Full, 100% of the Moon is Illuminated
Feb 25
Full
Feb 25
Full
Mar 4
Last Quarter
Mar 11
New
Mar 19
First Quarter

Hourly Weather History & Observations

Time (EST) Temp. Windchill Dew Point Humidity Pressure Visibility Wind Dir Wind Speed Gust Speed Precip Events Conditions
12:00 AM 32.0 °F 26.4 °F 21.0 °F 64% 30.00 in - WNW 5.8 mph 17.3 mph N/A   Clear
1:00 AM 30.9 °F 25.2 °F 21.0 °F 67% 30.01 in - NW 5.8 mph - N/A   Clear
2:00 AM 28.9 °F 22.8 °F 21.0 °F 72% 30.03 in - NW 5.8 mph - N/A   Clear
3:00 AM 28.9 °F 22.8 °F 21.0 °F 72% 30.03 in - NW 5.8 mph - N/A   Clear
5:00 AM 28.9 °F 23.9 °F 21.0 °F 72% 30.07 in - WNW 4.6 mph - N/A   Clear
6:00 AM 26.1 °F 21.9 °F 19.9 °F 78% 30.07 in - NW 3.5 mph - N/A   Clear
7:00 AM 26.1 °F 20.5 °F 21.0 °F 81% 30.09 in - WNW 4.6 mph - N/A   Clear
8:00 AM 33.1 °F 26.9 °F 23.0 °F 66% 30.13 in - WNW 6.9 mph - N/A   Clear
9:00 AM 37.0 °F 32.4 °F 24.1 °F 59% 30.13 in - Variable 5.8 mph - N/A   Clear
10:00 AM 41.0 °F 35.8 °F 26.1 °F 55% 30.13 in - NNW 8.1 mph - N/A   Clear
11:00 AM 43.0 °F 38.8 °F 25.0 °F 49% 30.13 in - Variable 6.9 mph - N/A   Partly Cloudy
12:00 PM 44.1 °F - 25.0 °F 47% 30.15 in - Calm Calm - N/A   Scattered Clouds
1:22 PM - - - N/A% - - North - - N/A   Unknown
2:00 PM 44.1 °F 41.5 °F 24.1 °F 45% 30.14 in - Variable 4.6 mph - N/A   Overcast
4:00 PM 44.1 °F 41.5 °F 25.0 °F 47% 30.16 in - WNW 4.6 mph - N/A   Overcast
5:00 PM 43.0 °F 41.3 °F 25.0 °F 49% 30.16 in - Variable 3.5 mph - N/A   Overcast
6:00 PM 42.1 °F - 26.1 °F 53% 30.18 in - Calm Calm - N/A   Overcast
7:00 PM 39.9 °F - 27.0 °F 60% 30.21 in - Calm Calm - N/A   Overcast
8:00 PM 35.1 °F - 26.1 °F 70% 30.22 in - Calm Calm - N/A   Partly Cloudy
9:00 PM 32.0 °F - 25.0 °F 75% 30.23 in - Calm Calm - N/A   Clear
10:00 PM 30.0 °F - 25.0 °F 82% 30.23 in - Calm Calm - N/A   Clear
11:00 PM 26.1 °F - 24.1 °F 92% 30.22 in - Calm Calm - N/A   Mostly Cloudy